Location: DARK SKY Beskydy - Park tmavé oblohy, www.darkskybeskydy.cz
(49.4926°N, 18.5016°E)
Time: 09:10:01
(UTC+01:00)

Explorer 7 - All Passes

Search period start: 25 February 2024 00:00
Search period end: 06 March 2024 00:00
Orbit: 470 x 632 km, 50.3° (Epoch: 25 February)

Date Brightness Start Highest point End Pass type
(mag) Time Alt. Az. Time Alt. Az. Time Alt. Az.
25 Feb - 07:22:24 10° S 07:24:49 17° SE 07:27:17 10° E daylight
25 Feb - 09:00:22 10° WSW 09:04:02 61° SSE 09:07:52 10° ENE daylight
25 Feb - 10:40:02 10° W 10:43:51 78° N 10:47:52 10° E daylight
25 Feb - 12:19:49 10° WNW 12:23:43 72° SSW 12:27:51 10° ESE daylight
25 Feb - 13:59:55 10° W 14:03:12 24° SW 14:06:36 10° SSE daylight
26 Feb - 07:16:37 10° SSW 07:19:28 21° SE 07:22:23 10° E daylight
26 Feb - 08:55:07 10° WSW 08:58:49 72° SSE 09:02:41 10° ENE daylight
26 Feb - 10:34:52 10° W 10:38:40 78° N 10:42:41 10° E daylight
26 Feb - 12:14:38 10° WNW 12:18:30 61° SSW 12:22:34 10° ESE daylight
26 Feb - 13:55:00 10° W 13:57:52 19° SW 14:00:50 10° S daylight
27 Feb - 07:10:59 10° SSW 07:14:07 27° SE 07:17:21 10° E daylight
27 Feb - 08:49:52 10° WSW 08:53:36 82° SSE 08:57:28 10° ENE daylight
27 Feb - 10:29:40 10° W 10:33:29 80° N 10:37:29 10° E daylight
27 Feb - 12:09:27 10° W 12:13:14 51° SSW 12:17:15 10° SE daylight
27 Feb - 13:50:14 10° WSW 13:52:29 15° SW 13:54:47 10° S daylight
28 Feb - 07:05:27 10° SW 07:08:48 34° SSE 07:12:14 10° E daylight
28 Feb - 08:44:38 10° WSW 08:48:22 89° NNW 08:52:15 10° E daylight
28 Feb - 10:24:28 10° W 10:28:16 85° N 10:32:16 10° E daylight
28 Feb - 12:04:16 10° W 12:07:57 42° SSW 12:11:49 10° SE daylight
28 Feb - 13:46:01 10° WSW 13:47:04 11° SW 13:48:08 10° SSW daylight
29 Feb - 07:00:00 10° SW 07:03:29 42° SSE 07:07:03 10° E daylight
29 Feb - 08:39:25 10° W 08:43:08 83° N 08:47:00 10° E daylight
29 Feb - 10:19:14 10° WNW 10:23:02 88° S 10:27:01 10° ESE daylight
29 Feb - 11:59:06 10° W 12:02:38 33° SSW 12:06:19 10° SSE daylight
01 Mar - 05:17:11 10° SSE 05:19:02 13° SE 05:20:53 10° ESE visible
01 Mar - 06:54:35 10° SW 06:58:10 52° SSE 07:01:50 10° E daylight
01 Mar - 08:34:11 10° W 08:37:54 79° N 08:41:46 10° E daylight
01 Mar - 10:13:59 10° WNW 10:17:46 79° SSW 10:21:44 10° ESE daylight
01 Mar - 11:53:58 10° W 11:57:16 27° SW 12:00:43 10° SSE daylight
02 Mar - 05:11:05 10° S 05:13:36 18° SE 05:16:07 10° E visible
02 Mar - 06:49:14 10° WSW 06:52:51 63° SSE 06:56:34 10° ENE daylight
02 Mar - 08:28:56 10° W 08:32:38 77° N 08:36:30 10° E daylight
02 Mar - 10:08:43 10° WNW 10:12:29 68° SSW 10:16:25 10° ESE daylight
02 Mar - 11:48:53 10° W 11:51:53 21° SW 11:54:58 10° SSE daylight
03 Mar - 05:05:16 10° SSW 05:08:10 22° SE 05:11:06 10° E visible
03 Mar - 06:43:53 10° WSW 06:47:33 75° SSE 06:51:18 10° ENE daylight
03 Mar - 08:23:40 10° W 08:27:23 78° N 08:31:14 10° E daylight
03 Mar - 10:03:27 10° WNW 10:07:10 57° SSW 10:11:02 10° SE daylight
03 Mar - 11:43:57 10° W 11:46:27 17° SW 11:49:00 10° S daylight
04 Mar - 04:59:34 10° SSW 05:02:45 28° SSE 05:05:57 10° E visible
04 Mar - 06:38:34 10° WSW 06:42:14 85° SSE 06:45:59 10° ENE daylight
04 Mar - 08:18:23 10° W 08:22:06 81° N 08:25:56 10° E daylight
04 Mar - 09:58:10 10° W 10:01:49 47° SSW 10:05:35 10° SE daylight
04 Mar - 11:39:16 10° WSW 11:40:59 13° SW 11:42:43 10° SSW daylight
05 Mar - 04:53:58 10° SW 04:57:20 36° SSE 05:00:44 10° E visible
05 Mar - 06:33:15 10° W 06:36:56 87° N 06:40:40 10° E daylight
05 Mar - 08:13:05 10° W 08:16:48 86° N 08:20:37 10° E daylight
05 Mar - 09:52:55 10° W 09:56:25 38° SSW 10:00:04 10° SE daylight
